Regional Weather Roundup
Issued by NWS Upton, NY

Current Version | Previous Version | Graphics & Text | Print | Product List | Glossary Off
Versions: 1 2 3 4 5 6 7 8 9 10 11 12 13 14 15 16 17 18 19 20 21 22 23 24 25 26 27 28 29 30 31 32 33 34 35 36 37 38 39 40 41 42 43 44 45 46 47 48 49 50

013
ASUS41 KOKX 031108
RWROKX

REGIONAL WEATHER ROUNDUP
NATIONAL WEATHER SERVICE NEW YORK NY
600 AM EST SAT DEC 03 2016

NOTE: "FAIR" INDICATES FEW OR NO CLOUDS BELOW 12,000 FEET WITH NO
SIGNIFICANT WEATHER AND/OR OBSTRUCTIONS TO VISIBILITY.

NYZ071-072-176-178-NJZ106-104-031200-
NEW YORK CITY METRO AREA

CITY           SKY/WX    TMP DP  RH WIND       PRES   REMARKS
Central Park   PTCLDY    41  26  55 NW10G17   29.98R
Wall St Helipt MOSUNNY   43  28  55 VRB5      29.98R
Bronx Bot Gard NOT AVBL
LaGuardia APRT PTCLDY    43  28  55 NW21G30   29.96R
Kennedy INTL   PTCLDY    42  26  53 NW16G26   29.97R
Breezy Point     N/A     41 N/A N/A NW10G20     N/A
Newark/Liberty MOCLDY    41  28  60 W23G30    29.97R
Teterboro      CLOUDY    42  25  50 W15G24    29.95R
$$

NYZ177-179-078>081-031200-
LONG ISLAND NEW YORK

CITY           SKY/WX    TMP DP  RH WIND       PRES   REMARKS
Jones Beach      N/A     41 N/A N/A NW18G25     N/A
Matinecock PT    N/A     43 N/A N/A NW21G28     N/A
Farmingdale    NOT AVBL
MacArthur/ISP  PTCLDY    40  28  62 W12       29.93R WCI  33
Shirley        CLEAR     40  29  64 NW15G22   29.91S WCI  32
Westhampton    NOT AVBL
Southampton    NOT AVBL
Bridgehampton  NOT AVBL
East Hampton   NOT AVBL
Montauk          N/A     42  30  62 NW17G29   29.88R
$$

NYZ052-065-067-031200-
HUDSON VALLEY

CITY           SKY/WX    TMP DP  RH WIND       PRES   REMARKS
White Plains   PTCLDY    40  27  59 NW15      29.92R WCI  32
Newburgh       NOT AVBL
Montgomery     CLOUDY    40  28  62 W13G21    29.93  WCI  32
Poughkeepsie   NOT AVBL
Albany         CLOUDY    37  27  67 NW17G29   29.91R WCI  27
$$

NJZ001-105-106-008-010-013-015-019>022-104-031200-
NEW JERSEY

CITY           SKY/WX    TMP DP  RH WIND       PRES   REMARKS
Newark/Liberty MOCLDY    41  28  60 W23G30    29.97R
Teterboro      CLOUDY    42  25  50 W15G24    29.95R
Caldwell       NOT AVBL
Somerville     NOT AVBL
Linden           N/A     41  27  59 NW14G28   29.99R
Sussex         NOT AVBL
Andover          N/A     39  27  62 VRB7      29.99R WCI  34
Trenton        NOT AVBL
Millville      MOCLDY    41  32  70 W13       30.06
Atlantic City  MOCLDY    42  29  59 W14       30.03R
Wrightstown    NOT AVBL
Toms River     CLEAR     41  30  65 NW15G22   30.02R
Belmar         CLEAR    N/A N/A N/A W14G25    29.99R
$$

PAZ047>061-062-071-031200-
EASTERN PENNSYLVANIA

CITY           SKY/WX    TMP DP  RH WIND       PRES   REMARKS
Philadelphia   MOCLDY    45  30  55 NW8       30.06R
Allentown      CLOUDY    42  26  53 W18G30    30.04R
Scranton       CLOUDY    38  27  64 NW12      30.02  WCI  30
$$

CTZ002-004>006-009-010-012-RIZ004-006-007-MAZ004-011-015-031200-
SOUTHERN NEW ENGLAND
 IN CT

CITY           SKY/WX    TMP DP  RH WIND       PRES   REMARKS
Bradley INTL   NOT AVBL
Hartford       CLOUDY    40  27  59 NW8G17    29.90R WCI  34
Danbury        NOT AVBL
Wtrbury/Oxford CLOUDY    37  27  65 W3        29.90R
Bridgeport     PTCLDY    42  28  57 W10       29.91R
Meriden        CLOUDY    41  28  60 NW13      29.89R
New Haven      NOT AVBL
Chester        CLOUDY    41  27  56 NW6       29.88R
Groton         CLEAR     43  28  55 NW14G23   29.86R
Wilimantic     CLOUDY    41  27  57 NW13G23   29.86

 IN RI

CITY           SKY/WX    TMP DP  RH WIND       PRES   REMARKS
Providence     NOT AVBL
Block Island   NOT AVBL
Westerly       CLEAR     40  24  53 VRB6      29.86R
 IN MA

CITY           SKY/WX    TMP DP  RH WIND       PRES   REMARKS
Boston         MOCLDY    39  28  64 W17       29.79R WCI  30
Worcester      CLOUDY    34  24  67 W22G29    29.78R WCI  22
Westfield      CLOUDY    38  25  59 NW17      29.86R WCI  28
Provincetown   NOT AVBL
Nantucket      CLEAR     41  28  60 NW18G25   29.78R
$$

ANZ330-335-338-340-345-350-353-355-031200-
COASTAL MARINE OBSERVATIONS


STATION/POSITION TIME  SKY/WX   TEMP    WIND        PRES    VSBY  WAVE
                                AIR SEA DIR/SP/G                  HT/PER
                 (UTC)          (F)     (DEG/KT/KT) (MB)    (MI)  (FT/S)
NY HARB ENTRANCE 1050            45 54  300/ 29/ 37 1013.8          4/ 4
20 S FIRE ISLAND 1050            45 54  310/ 27/ 33 1012.9          7/ 6
GREAT SOUTH BAY  1030            42 45                N/A
23 SSW MONTAUK P 1050            45 56  300/ 23/ 29 1011.7          7/ 8
15 E BARNEGAT LI 1030               54                N/A           5/ 5
HUDSON CANYON    0950            48 59              1012.6         10/ 8
KINGS POINT      1042            43 48              1013.9
EXECUTION ROCKS  1045            43     280/ 16/ 23   N/A
CENTRAL LI SOUND 1030            44 51  290/ 17/ 23   N/A           4/ 5
EASTERN LI SOUND NOT AVBL
ROBBINS REEF     1042            42     300/ 25/ 30 1014.2
$$


>>>>>>>>>>>>>>>>>>>>>>>>>>>> KEY <<<<<<<<<<<<<<<<<<<<<<<<<<<
>                                                          <
>     SKY/WX - Sky Condition/Present Weather               <
>     TMP    - Temperature in Fahrenheit                   <
>     DP     - Dew Point in Fahrenheit                     <
>     RH     - Relative Humidity in Percent                <
>     WIND   - Direction (from) and Speed in MPH           <
>     PRES   - Mean Sea Level Pressure (inches of Hg)      <
>     WCI    - Wind Chill Index                            <
>     VSB    - VISIBILITY IN MILES                         <
>     HX     - HEAT INDEX                                  <
>     TC     - TEMPERATURE IN CELSIUS                      <
>     VRB    - VARIABLE WIND DIRECTION                     <
>                                                          <
>>>>>>>>>>>>>>>>>>>>>>>>>>>> KEY <<<<<<<<<<<<<<<<<<<<<<<<<<<




USA.gov is the U.S. government's official web portal to all federal, state and local government web resources and services.